Wind_Speed
37 36 35 33 33 32 31 30 29 29 28 28 28 27 26 26 26 25 25 24 24 24 23 23 23 23 22 21 20 18 17 16 15 15 15 16 17 17 17 18 19 20 20 20 21 22 23 24 25 25 24 24 24 24 25 26 27 28 28 28 29 29
37 36 35 34 33 33 32 31 30 29 29 29 28 27 27 26 26 25 25 25 25 25 24 24 24 24 23 22 21 20 18 17 16 16 15 16 18 19 20 20 21 21 20 21 21 22 23 24 24 23 21 21 21 21 22 23 24 25 26 27 28 28
38 36 35 35 34 33 32 31 30 30 29 29 28 28 27 26 26 26 26 25 26 26 26 25 25 25 24 24 23 22 20 19 18 17 17 18 19 20 21 22 22 22 22 22 21 21 21 22 21 20 19 20 20 21 22 23 23 24 25 26 29 30
37 37 36 35 35 34 33 32 31 30 30 29 29 28 28 27 27 26 26 26 26 26 27 26 26 25 26 25 24 23 22 20 19 18 18 18 19 19 20 22 23 24 24 23 21 20 19 18 18 18 19 20 21 23 24 24 24 24 25 26 28 30
38 37 36 35 35 34 33 32 31 31 30 30 30 29 29 28 27 27 26 26 26 26 27 27 26 26 26 26 25 24 23 22 21 20 19 19 19 19 20 22 24 25 25 23 21 19 17 16 16 18 19 21 23 25 26 25 24 25 26 27 27 29
39 38 37 35 35 35 34 33 32 32 31 31 30 30 30 29 28 28 27 27 26 26 27 27 27 28 28 27 25 23 21 21 20 19 19 20 19 19 20 23 24 24 23 21 20 19 17 17 18 19 21 23 25 26 27 26 26 26 27 27 28 29
39 38 38 36 36 36 35 34 33 33 32 32 31 31 31 30 29 28 28 28 27 27 27 27 27 28 27 23 20 19 18 19 19 19 19 21 19 19 21 22 23 22 21 20 20 19 19 19 21 22 24 25 26 27 27 27 27 27 28 28 27 28
40 39 38 37 37 36 36 35 35 35 34 34 33 33 32 31 30 29 29 29 28 28 28 28 26 24 22 19 17 19 21 22 21 21 22 22 20 21 22 22 22 22 21 21 21 22 21 21 23 25 27 28 28 28 28 28 28 28 29 30 29 28
40 39 38 38 38 37 37 37 36 36 36 36 35 34 33 32 31 30 30 29 29 29 29 28 25 22 21 20 20 23 25 25 24 25 27 25 25 25 24 23 23 23 24 24 25 25 25 24 26 28 29 30 30 30 30 29 29 29 30 31 31 29
40 40 39 39 38 37 37 38 38 37 37 37 36 36 34 33 32 31 31 30 30 29 28 26 24 22 22 20 21 24 25 26 29 30 31 29 28 28 27 27 26 27 27 27 27 27 27 28 29 30 31 31 31 32 31 30 31 31 31 32 32 32
41 39 38 38 37 38 38 37 36 36 36 36 36 36 35 33 33 32 30 30 29 29 27 24 22 23 24 22 21 25 28 32 34 34 33 32 31 31 30 30 30 30 30 29 30 29 30 31 32 33 33 33 33 33 32 31 31 32 32 33 34 33
39 36 35 35 35 35 34 32 31 32 34 34 34 34 34 33 32 30 29 29 28 26 25 23 23 26 26 26 27 30 33 35 36 35 35 34 34 34 33 33 32 32 32 32 32 33 33 34 35 35 35 35 35 34 33 33 32 32 33 34 34 34
34 29 29 29 28 27 25 25 27 29 30 31 31 31 31 30 28 28 28 27 25 24 25 24 25 27 29 30 31 33 35 36 37 37 37 37 37 36 35 35 35 34 35 35 35 36 36 37 37 38 37 37 37 36 35 35 34 34 34 34 34 35
26 23 23 22 20 17 17 19 20 21 23 25 27 27 27 27 27 27 26 24 24 25 25 25 27 29 31 32 33 35 37 38 39 38 38 38 38 38 38 37 37 37 37 37 37 38 39 39 40 40 40 39 39 38 37 36 36 36 35 35 34 34
22 23 21 17 14 12 13 14 14 17 20 22 24 24 24 25 27 26 25 24 25 26 25 26 29 30 32 34 36 38 39 40 40 40 40 40 40 40 40 39 39 40 40 40 40 41 41 41 41 42 42 42 41 40 39 38 37 37 36 35 34 34
24 24 19 13 12 11 12 16 16 17 20 21 22 21 23 23 23 23 24 24 24 24 25 27 29 30 34 37 38 39 39 40 41 41 41 42 42 42 42 42 42 43 43 44 43 43 43 43 43 43 44 44 43 43 42 40 38 37 36 36 35 34
25 22 16 12 12 13 15 17 17 18 19 20 19 19 20 18 18 19 20 22 23 22 23 27 30 32 36 38 40 41 41 42 42 43 43 44 45 45 45 46 46 46 46 45 45 44 44 44 44 45 45 45 44 43 42 40 39 37 36 36 35 35
23 19 16 14 15 18 18 16 16 19 18 16 16 16 15 14 16 16 16 20 21 20 23 28 31 35 39 41 42 43 43 44 44 45 45 46 47 47 47 47 47 47 47 46 46 45 46 46 46 46 46 45 44 43 42 40 39 37 36 36 35 35
22 20 17 18 19 22 22 18 16 18 14 11 14 16 15 16 17 16 17 20 21 21 26 31 35 39 41 43 43 43 44 44 45 45 46 47 48 48 47 48 48 48 47 47 47 47 47 47 47 46 46 45 44 43 41 40 39 38 37 36 36 36
23 19 18 19 21 23 24 22 18 15 12 12 15 17 19 17 12 12 17 22 24 25 31 36 40 41 41 42 42 43 43 43 44 45 46 47 47 48 48 49 49 49 49 48 48 48 47 47 47 46 45 44 43 42 42 41 40 39 38 37 37 37
25 21 22 22 21 23 23 23 22 17 15 17 18 18 20 17 13 12 19 27 29 30 36 40 40 39 39 40 40 41 41 41 42 43 44 45 45 46 47 48 48 49 49 49 48 48 47 47 46 46 45 44 43 42 42 42 41 40 39 39 39 39
28 28 29 26 24 25 24 24 23 20 18 19 20 18 19 21 21 20 26 34 34 34 40 40 37 37 37 38 39 39 39 40 40 41 41 42 43 43 44 45 45 46 47 47 48 47 47 46 45 45 45 44 43 43 42 42 42 41 41 40 40 40
31 30 30 28 28 29 28 25 21 21 20 20 21 20 22 25 24 26 33 38 37 38 41 37 36 37 38 38 38 38 39 39 39 39 39 40 41 41 41 41 42 43 44 45 45 46 45 44 44 44 44 44 43 42 42 42 42 42 42 42 42 41
33 31 28 27 28 29 29 25 22 23 24 24 24 23 26 25 24 29 37 40 38 42 41 38 39 40 40 40 39 39 40 39 39 39 39 39 39 38 38 39 40 41 42 43 44 44 44 44 43 43 42 42 42 42 42 42 42 42 43 43 43 42
36 34 30 28 29 29 27 26 26 27 28 28 25 25 26 26 28 33 39 41 41 45 43 41 43 43 43 42 41 42 41 41 42 42 42 41 39 38 38 40 41 42 42 43 44 44 44 44 43 43 42 41 41 41 41 42 43 43 42 43 43 42
37 35 32 31 31 28 26 26 28 29 30 30 26 28 27 30 34 39 42 43 45 48 46 45 46 45 45 44 43 43 43 44 45 45 45 43 41 41 41 42 42 42 43 43 44 44 45 45 44 43 42 41 40 40 41 40 41 42 42 41 41 41
37 35 33 33 31 28 27 28 29 30 31 29 31 33 34 37 41 44 45 47 49 51 49 48 47 46 45 44 44 44 44 45 45 45 45 44 44 44 44 44 43 43 44 45 46 46 45 45 45 44 43 42 41 40 40 40 39 40 40 39 38 38
36 35 33 32 31 29 28 30 32 31 29 30 35 38 39 42 44 47 48 50 52 53 50 48 47 45 44 44 44 45 45 46 46 46 46 46 46 46 46 46 46 46 47 47 48 47 47 46 45 45 43 42 42 41 40 39 38 37 38 39 37 36
38 37 36 34 32 31 30 32 36 35 30 31 35 39 41 43 47 49 50 53 54 51 48 46 45 44 45 45 45 46 46 47 47 48 48 48 48 48 47 47 47 48 49 50 50 49 48 48 46 45 44 43 42 41 41 40 39 37 37 37 38 37
39 38 38 38 35 34 34 35 39 39 36 34 36 39 42 45 48 50 53 55 52 49 46 45 44 45 45 46 47 47 48 49 49 49 50 50 49 48 47 47 49 52 54 54 52 50 48 48 48 46 45 44 43 42 42 41 40 39 38 37 37 38
40 39 39 40 39 37 36 36 37 38 39 38 39 41 44 47 50 55 58 56 52 48 47 45 45 46 46 47 48 48 49 50 50 51 51 50 48 47 47 50 54 56 55 53 50 49 48 48 48 47 46 46 45 44 43 43 42 41 40 39 38 38
41 42 41 42 42 40 38 37 36 36 38 39 41 45 48 52 56 59 58 54 51 48 46 46 46 46 47 48 49 49 50 50 51 52 51 49 48 48 51 54 56 55 51 48 48 48 48 49 49 49 48 47 46 45 44 43 43 42 42 41 40 39
41 44 44 44 45 43 40 39 37 38 40 43 45 49 52 54 54 52 50 49 48 46 46 47 47 48 49 50 50 51 52 52 53 52 51 50 50 52 55 56 57 54 48 47 48 49 50 51 51 51 50 49 48 47 45 44 43 42 42 42 41 41
41 45 46 46 46 44 41 40 41 43 45 48 50 51 52 50 48 47 48 48 48 48 49 49 50 51 51 52 53 54 54 53 53 53 53 53 54 56 58 59 59 55 50 49 50 52 53 53 53 53 52 51 50 49 47 45 44 43 42 42 42 41
42 44 46 48 48 47 44 44 45 48 50 52 53 53 52 50 50 50 50 50 51 51 52 52 52 53 53 54 54 54 53 53 53 54 54 55 57 59 61 61 60 57 53 52 54 55 56 56 56 55 54 53 52 51 50 48 46 45 44 43 42 41
46 46 46 48 51 50 49 49 50 52 53 54 54 54 53 53 52 51 51 52 53 53 53 53 53 53 53 53 53 53 53 53 54 54 55 57 59 61 62 61 60 58 56 56 58 59 60 60 59 58 56 54 53 52 52 50 49 47 46 45 44 43
51 50 49 48 50 52 52 52 52 54 55 56 56 55 55 54 53 52 53 53 54 54 54 53 53 52 52 53 53 54 54 54 54 55 57 59 60 61 60 60 60 59 59 60 61 62 63 63 62 61 58 55 54 53 53 52 51 50 49 48 47 46
Wind_Direction
290 290 291 291 292 292 293 294 296 297 298 299 301 304 307 310 311 313 313 312 311 311 309 306 304 304 304 303 302 301 301 301 300 300 299 300 300 299 297 296 297 297 298 299 301 302 303 304 304 306 307 308 310 312 313 312 310 308 307 307 306 305
290 291 291 291 291 291 292 293 295 296 297 298 300 303 306 309 310 312 312 312 312 312 310 308 306 305 304 303 303 302 302 302 301 300 298 297 297 297 297 296 296 296 298 299 300 300 302 304 305 307 308 310 313 316 319 317 315 313 312 312 310 309
290 291 291 290 290 290 292 292 294 295 296 297 300 302 305 307 308 310 311 312 312 312 310 308 307 305 304 304 303 303 302 302 302 301 299 297 296 296 296 297 297 297 299 301 301 300 302 304 305 307 307 309 312 316 320 320 318 316 315 315 312 308
290 289 289 289 289 290 291 291 293 294 296 297 299 301 303 304 305 307 308 310 310 310 309 308 307 306 305 304 303 302 302 302 303 303 302 299 297 296 296 297 297 298 300 301 302 301 301 302 304 304 304 306 309 314 317 319 320 319 317 317 316 311
287 286 287 287 288 289 290 291 293 293 295 297 298 299 301 302 302 303 305 307 308 307 307 307 307 306 305 304 302 302 303 304 305 305 304 301 299 297 297 298 297 298 299 299 301 300 297 299 302 301 302 305 309 314 317 319 321 321 318 317 317 314
284 285 286 287 288 289 290 291 292 293 294 295 296 297 298 298 299 301 302 303 304 305 306 306 305 306 306 305 304 305 307 309 309 308 306 302 298 296 297 298 298 299 298 295 298 297 294 297 301 301 303 307 311 316 318 318 319 320 320 318 317 317
282 284 285 287 287 288 289 290 291 292 293 294 294 295 295 296 297 298 300 301 301 302 303 303 305 308 307 308 314 316 314 313 311 309 310 305 299 297 299 299 299 300 298 295 297 296 293 296 301 303 305 309 312 315 317 316 315 318 320 320 320 320
283 284 285 286 286 287 288 290 291 292 292 292 292 292 293 294 295 296 297 298 299 299 300 300 304 305 301 303 310 311 309 309 308 309 310 306 300 301 301 300 298 298 298 297 298 299 295 295 299 303 306 309 311 313 314 313 312 314 318 321 322 322
282 283 283 284 285 287 289 290 291 291 291 291 290 290 291 293 294 295 296 296 296 296 297 298 299 297 295 298 298 296 299 303 305 307 308 303 300 301 300 299 297 296 296 295 295 296 294 292 296 301 304 307 310 311 312 311 309 310 314 319 322 322
280 280 282 284 286 288 289 289 289 290 289 289 289 289 289 291 292 292 293 294 294 294 296 296 293 293 296 298 294 290 292 298 302 305 305 302 301 300 299 297 297 296 296 294 293 293 292 292 295 298 301 304 307 309 309 309 309 309 312 316 321 322
279 281 284 286 287 287 287 288 289 288 288 288 288 289 289 290 290 291 292 292 292 292 293 291 290 295 297 294 288 286 292 299 302 303 303 302 301 300 298 298 297 297 296 295 294 293 292 293 295 297 299 301 304 306 306 307 307 308 311 314 317 320
278 282 286 287 285 286 287 287 287 287 288 289 290 291 291 291 290 290 292 292 291 291 291 288 289 295 297 295 290 290 295 299 301 302 301 301 300 299 298 298 298 297 296 295 294 294 294 295 296 297 299 301 302 304 304 304 305 306 308 311 314 317
277 282 284 284 283 284 285 286 288 289 289 291 293 295 293 291 291 292 293 292 291 292 290 289 291 296 299 299 297 297 299 301 301 301 300 300 299 298 297 297 297 296 295 295 295 295 296 297 297 298 299 300 301 303 304 304 304 305 305 307 310 313
273 277 278 277 279 283 289 296 294 289 289 292 296 298 296 293 293 295 294 291 292 293 291 292 297 302 303 303 303 304 304 303 302 300 299 298 298 297 296 295 295 295 295 296 296 296 296 297 297 298 298 299 300 301 302 303 303 304 303 305 307 308
262 267 267 266 274 284 303 312 297 285 289 295 298 300 300 298 298 298 296 292 291 291 291 295 302 304 305 306 306 305 304 302 300 298 297 296 296 295 295 294 294 295 296 296 297 297 297 297 297 297 298 299 299 300 300 301 301 301 301 301 303 304
250 255 251 254 271 279 301 310 300 290 290 297 301 302 306 305 303 303 300 295 290 285 288 297 303 304 304 305 305 303 302 300 297 297 296 295 294 294 293 293 293 294 295 296 296 296 296 295 296 296 297 297 298 299 299 299 299 298 298 299 300 301
241 242 237 249 265 272 292 305 300 288 285 295 302 303 307 304 302 306 301 295 287 281 291 303 305 304 303 304 304 303 300 298 295 294 294 293 292 291 291 291 291 292 293 294 294 295 294 294 294 294 295 296 296 297 297 297 297 296 296 296 297 298
232 229 233 248 257 266 285 295 285 277 278 291 299 297 295 290 294 300 292 283 278 284 300 306 306 305 304 304 302 300 298 295 293 292 291 290 290 290 290 291 292 292 293 293 293 293 293 293 293 294 294 294 294 295 295 295 294 294 293 293 293 294
227 228 238 251 256 264 279 287 278 271 267 281 292 285 282 286 294 298 291 279 273 288 304 305 305 305 303 302 300 298 296 294 293 292 291 290 290 290 290 291 292 292 293 293 293 293 293 293 293 293 293 293 294 293 293 293 292 292 291 290 290 290
229 235 251 256 261 267 275 282 281 271 259 269 276 273 279 281 279 287 282 270 269 287 303 304 303 303 301 301 299 298 298 296 295 294 293 292 291 291 291 291 291 292 292 292 292 292 292 292 292 292 292 292 292 292 292 292 291 291 290 289 289 289
237 244 254 254 261 269 270 274 276 269 256 256 258 265 273 256 227 239 253 253 260 284 300 302 301 301 302 302 301 302 302 301 300 299 298 297 295 294 293 293 293 293 293 293 293 292 292 291 291 291 291 291 291 291 290 290 290 289 288 287 287 288
247 248 251 251 258 260 259 264 268 266 255 250 254 254 249 234 218 224 241 246 256 283 299 299 299 302 303 305 305 305 305 304 304 303 303 302 301 300 299 298 298 297 297 296 295 294 293 292 292 291 291 290 290 290 289 289 289 288 287 286 286 286
249 247 246 251 256 254 255 259 263 263 251 251 261 246 225 224 220 226 240 242 254 285 299 296 298 302 304 306 307 306 306 306 306 307 307 307 306 305 305 305 304 303 302 301 299 298 297 295 294 292 291 291 290 289 288 288 287 287 287 286 286 286
248 245 243 248 251 253 257 256 255 255 254 262 263 236 218 222 221 227 238 241 259 289 297 293 297 300 302 304 305 305 306 306 306 307 308 310 310 310 310 311 310 309 307 305 303 301 300 298 296 294 293 291 290 289 288 287 286 286 286 285 286 286
247 246 243 245 248 252 256 254 253 251 261 272 253 223 221 230 228 230 238 246 267 290 293 292 296 298 299 301 301 302 303 304 304 305 306 308 309 309 310 311 312 312 310 308 306 303 301 300 299 297 295 293 291 290 288 287 286 285 285 285 285 285
244 245 243 245 247 246 246 250 251 250 264 267 237 218 225 231 232 235 242 253 272 289 290 291 294 295 297 298 298 300 301 303 303 303 304 305 305 305 306 308 310 311 311 310 308 305 303 301 299 298 296 295 292 290 289 287 286 285 286 286 286 286
242 244 242 242 241 238 240 245 248 253 263 252 223 220 229 232 238 243 249 259 276 287 288 289 292 293 294 296 297 299 300 302 302 302 302 302 303 303 304 306 308 309 311 310 309 307 304 302 300 298 297 296 294 291 289 288 286 286 287 288 287 286
237 241 240 236 234 235 241 243 247 257 257 236 222 225 231 237 245 250 254 265 279 286 287 289 290 291 293 295 297 299 300 301 301 301 301 301 302 303 304 306 307 309 310 310 310 307 305 302 300 298 297 295 294 293 291 290 289 288 289 289 289 287
235 239 238 236 235 237 241 242 250 256 245 233 233 234 235 242 247 251 259 273 283 287 287 289 290 291 294 295 297 299 300 301 301 301 302 302 303 303 304 306 308 310 311 311 310 307 305 302 300 298 296 295 294 294 293 292 291 291 290 289 289 288
237 237 237 239 240 237 239 245 253 252 238 233 239 240 243 247 248 256 268 279 285 286 287 289 290 293 294 295 297 298 300 301 302 302 303 304 305 305 306 308 310 311 312 311 309 306 304 302 301 299 297 295 294 294 293 293 292 291 290 289 288 287
240 237 236 240 241 236 240 250 253 247 238 236 239 241 245 249 255 266 275 280 283 284 286 289 291 292 293 295 297 298 300 301 302 303 304 305 305 306 308 310 313 313 312 310 309 307 305 303 302 300 298 296 294 294 293 292 291 290 289 289 287 285
240 238 237 239 238 236 243 250 247 242 242 242 243 247 253 259 266 273 276 278 280 283 287 289 291 292 293 295 296 298 299 300 302 303 303 304 303 305 308 312 316 316 313 312 312 311 310 307 304 301 299 297 295 293 292 290 290 289 289 289 288 286
240 237 238 237 237 240 245 245 238 237 242 245 250 257 263 267 271 274 275 277 280 285 288 290 291 291 293 294 295 297 298 299 301 301 301 301 302 305 308 312 316 316 312 313 315 315 314 312 307 303 300 298 295 293 292 290 289 288 287 287 287 286
240 236 236 237 240 244 243 238 235 237 242 249 257 264 267 270 272 275 277 279 282 286 289 290 291 292 293 294 295 296 297 298 298 298 298 299 301 304 307 310 313 313 309 310 314 316 316 315 311 306 301 298 296 294 292 291 290 288 287 286 286 285
239 238 238 240 244 245 240 237 238 242 247 254 261 265 269 272 275 277 279 281 283 286 288 289 290 292 293 294 295 296 296 296 297 297 297 299 301 304 306 308 311 311 307 306 311 315 316 316 313 309 303 299 296 294 293 292 291 290 288 287 286 284
238 241 243 243 243 242 240 240 243 247 252 257 262 266 271 275 277 279 280 281 284 286 287 289 290 291 292 293 294 294 295 296 296 297 298 300 302 304 306 308 309 309 307 307 310 313 315 316 314 311 306 300 297 294 293 293 292 291 290 289 287 285
239 241 244 245 243 242 242 245 248 251 256 260 263 268 272 276 278 279 280 282 284 285 287 288 289 289 290 291 292 294 295 296 296 297 299 301 303 305 306 308 308 308 308 309 310 312 314 314 313 311 306 301 297 295 293 293 292 291 290 289 288 286
Height
10827 10826 10827 10826 10826 10826 10825 10825 10825 10824 10823 10822 10822 10821 10820 10820 10819 10818 10817 10817 10816 10816 10815 10815 10814 10814 10813 10813 10812 10812 10812 10811 10810 10810 10809 10809 10808 10808 10807 10807 10806 10805 10804 10803 10802 10801 10799 10798 10797 10795 10794 10793 10791 10790 10789 10787 10786 10785 10783 10782 10781 10779
10824 10823 10823 10823 10823 10823 10822 10823 10822 10822 10821 10820 10820 10819 10819 10818 10817 10817 10816 10815 10814 10814 10813 10813 10812 10811 10811 10810 10810 10809 10809 10809 10808 10808 10808 10807 10806 10805 10805 10804 10804 10803 10802 10801 10800 10799 10798 10796 10794 10793 10792 10791 10790 10789 10788 10786 10784 10783 10781 10780 10778 10777
10820 10820 10820 10820 10819 10820 10820 10820 10820 10819 10818 10818 10817 10817 10816 10816 10816 10815 10814 10813 10812 10811 10810 10810 10809 10808 10808 10807 10807 10806 10806 10806 10806 10806 10806 10805 10805 10804 10803 10801 10801 10800 10800 10799 10798 10797 10796 10794 10792 10791 10790 10789 10788 10787 10786 10784 10783 10781 10780 10779 10776 10774
10818 10817 10817 10817 10816 10816 10816 10816 10817 10816 10816 10815 10815 10814 10814 10814 10813 10813 10812 10811 10810 10808 10807 10807 10806 10805 10804 10804 10803 10803 10803 10803 10803 10804 10804 10803 10803 10802 10801 10800 10798 10797 10797 10796 10796 10795 10794 10792 10791 10789 10788 10787 10786 10785 10784 10783 10782 10780 10778 10777 10775 10772
10814 10813 10813 10814 10813 10813 10813 10813 10814 10813 10813 10812 10812 10812 10811 10811 10811 10810 10809 10809 10807 10806 10805 10804 10803 10802 10801 10800 10800 10800 10800 10800 10801 10801 10801 10801 10801 10800 10799 10798 10797 10796 10795 10794 10793 10792 10791 10790 10789 10788 10786 10785 10784 10783 10782 10781 10780 10778 10776 10774 10773 10769
10810 10810 10810 10811 10810 10810 10810 10810 10810 10809 10810 10810 10809 10809 10809 10809 10808 10808 10807 10806 10805 10804 10803 10801 10800 10798 10797 10796 10796 10797 10797 10797 10798 10798 10798 10798 10798 10798 10798 10796 10795 10794 10793 10792 10791 10790 10789 10788 10787 10786 10785 10783 10782 10781 10780 10778 10777 10776 10774 10772 10771 10768
10807 10808 10807 10808 10807 10807 10807 10807 10807 10806 10806 10806 10806 10806 10806 10805 10805 10805 10804 10804 10803 10802 10801 10799 10797 10795 10793 10793 10793 10794 10795 10795 10795 10796 10796 10796 10796 10796 10795 10794 10793 10792 10791 10790 10789 10788 10787 10785 10784 10783 10782 10781 10780 10778 10777 10776 10774 10773 10771 10769 10768 10766
10805 10805 10804 10804 10804 10804 10803 10803 10803 10803 10803 10803 10803 10803 10803 10802 10802 10802 10801 10801 10800 10799 10798 10797 10796 10793 10790 10790 10792 10793 10793 10793 10793 10793 10794 10794 10794 10793 10793 10792 10791 10791 10790 10789 10788 10786 10785 10783 10782 10780 10779 10778 10777 10776 10775 10774 10772 10770 10768 10765 10765 10763
10802 10801 10801 10801 10800 10800 10800 10800 10800 10799 10800 10799 10799 10799 10799 10799 10799 10799 10798 10798 10797 10796 10795 10794 10794 10792 10789 10790 10791 10792 10791 10791 10791 10791 10791 10792 10792 10791 10791 10790 10789 10788 10788 10787 10786 10785 10783 10782 10780 10778 10776 10775 10774 10773 10772 10771 10769 10768 10766 10763 10761 10760
10797 10797 10797 10797 10797 10797 10796 10796 10795 10795 10795 10795 10795 10795 10796 10796 10796 10795 10795 10795 10794 10793 10793 10792 10792 10790 10789 10790 10790 10790 10790 10789 10789 10789 10789 10789 10789 10788 10788 10787 10787 10786 10785 10784 10783 10782 10781 10779 10778 10776 10775 10773 10771 10770 10769 10767 10766 10764 10763 10760 10758 10757
10793 10794 10794 10794 10793 10793 10792 10792 10791 10791 10791 10791 10791 10791 10792 10792 10792 10792 10792 10792 10791 10791 10790 10790 10789 10788 10788 10789 10789 10788 10788 10787 10787 10786 10786 10785 10785 10785 10785 10784 10784 10783 10782 10781 10780 10780 10778 10776 10775 10774 10772 10771 10769 10768 10766 10765 10763 10761 10760 10758 10756 10754
10789 10791 10790 10790 10789 10789 10789 10788 10788 10787 10787 10787 10788 10788 10788 10788 10788 10788 10788 10788 10788 10788 10787 10787 10787 10786 10786 10787 10787 10786 10786 10785 10784 10783 10782 10782 10782 10781 10781 10781 10780 10780 10779 10778 10777 10776 10774 10773 10772 10770 10769 10767 10766 10765 10763 10762 10760 10759 10757 10755 10753 10751
10786 10787 10786 10785 10785 10785 10785 10784 10784 10784 10783 10784 10784 10784 10784 10784 10784 10784 10785 10785 10785 10785 10785 10784 10784 10783 10783 10783 10784 10783 10783 10782 10781 10780 10780 10779 10778 10778 10778 10777 10777 10776 10775 10774 10773 10772 10770 10769 10767 10766 10765 10764 10763 10761 10760 10758 10757 10756 10755 10753 10751 10748
10782 10783 10782 10782 10781 10781 10781 10781 10780 10780 10780 10780 10780 10780 10780 10780 10780 10781 10781 10781 10782 10782 10782 10781 10781 10781 10781 10781 10780 10780 10780 10779 10778 10777 10777 10776 10776 10775 10774 10774 10773 10772 10771 10770 10769 10767 10766 10764 10763 10762 10760 10759 10759 10757 10756 10755 10753 10751 10750 10750 10748 10746
10778 10778 10778 10778 10778 10779 10778 10778 10777 10776 10776 10777 10777 10777 10777 10777 10777 10777 10778 10778 10779 10779 10779 10779 10779 10779 10778 10778 10778 10777 10776 10775 10774 10774 10774 10773 10772 10772 10771 10770 10769 10768 10767 10765 10764 10763 10761 10760 10758 10757 10756 10754 10753 10752 10752 10751 10750 10748 10746 10746 10745 10743
10773 10773 10775 10775 10775 10776 10776 10776 10775 10774 10774 10774 10774 10774 10774 10774 10774 10775 10775 10775 10776 10777 10777 10777 10777 10777 10776 10776 10775 10774 10773 10772 10772 10771 10771 10770 10769 10768 10767 10766 10765 10764 10762 10761 10760 10759 10757 10756 10754 10752 10751 10750 10749 10747 10747 10746 10746 10744 10743 10742 10741 10740
10768 10770 10772 10772 10772 10772 10774 10775 10774 10772 10771 10771 10772 10772 10773 10772 10773 10774 10774 10774 10774 10774 10775 10775 10775 10774 10774 10773 10772 10771 10771 10770 10769 10769 10768 10767 10766 10765 10764 10762 10761 10760 10758 10757 10756 10754 10753 10751 10750 10748 10747 10746 10744 10743 10742 10741 10741 10740 10739 10738 10737 10735
10765 10767 10768 10768 10768 10768 10772 10775 10773 10769 10769 10769 10770 10771 10771 10771 10771 10772 10774 10772 10771 10771 10772 10771 10771 10771 10771 10770 10770 10769 10768 10768 10767 10766 10765 10764 10763 10762 10760 10759 10757 10756 10754 10753 10751 10750 10748 10747 10745 10744 10743 10741 10740 10739 10738 10737 10736 10735 10735 10734 10733 10732
10762 10763 10765 10764 10764 10765 10768 10771 10770 10767 10767 10767 10766 10765 10767 10768 10767 10768 10769 10769 10768 10768 10768 10768 10768 10768 10768 10767 10767 10766 10765 10765 10764 10763 10762 10761 10759 10758 10757 10755 10753 10752 10750 10748 10747 10746 10744 10742 10741 10739 10738 10737 10735 10734 10733 10732 10731 10731 10730 10729 10729 10728
10761 10762 10761 10760 10761 10762 10764 10767 10767 10766 10766 10764 10762 10761 10763 10765 10765 10766 10768 10768 10766 10765 10765 10765 10765 10765 10764 10764 10763 10762 10762 10761 10760 10759 10758 10757 10755 10754 10753 10751 10749 10747 10746 10744 10743 10741 10740 10738 10736 10735 10733 10732 10731 10729 10728 10727 10726 10725 10725 10724 10724 10723
10760 10759 10756 10755 10758 10760 10761 10762 10763 10765 10766 10763 10761 10762 10763 10764 10764 10767 10769 10768 10765 10763 10762 10762 10761 10761 10761 10760 10759 10758 10758 10757 10756 10755 10753 10752 10751 10749 10748 10747 10745 10743 10741 10740 10738 10737 10736 10734 10732 10730 10729 10727 10726 10725 10723 10722 10721 10720 10720 10719 10719 10718
10757 10754 10750 10752 10755 10755 10756 10758 10759 10762 10763 10761 10761 10762 10761 10761 10763 10765 10765 10763 10761 10760 10759 10759 10758 10758 10757 10756 10755 10754 10754 10753 10752 10750 10749 10748 10746 10745 10744 10742 10741 10739 10737 10735 10733 10732 10731 10730 10728 10726 10724 10723 10722 10720 10719 10717 10716 10715 10715 10714 10714 10713
10752 10751 10750 10751 10750 10749 10750 10754 10756 10757 10758 10758 10758 10758 10757 10756 10758 10759 10758 10757 10757 10756 10756 10755 10754 10754 10753 10753 10752 10751 10750 10749 10748 10747 10746 10744 10742 10741 10740 10738 10737 10735 10733 10731 10728 10727 10726 10725 10724 10722 10720 10719 10717 10716 10714 10713 10711 10710 10709 10709 10708 10708
10748 10749 10750 10750 10747 10746 10748 10751 10752 10752 10753 10754 10753 10753 10751 10750 10751 10751 10752 10752 10752 10752 10752 10751 10750 10750 10749 10748 10748 10747 10746 10746 10745 10744 10743 10741 10739 10737 10736 10734 10733 10731 10729 10727 10725 10722 10720 10720 10718 10717 10716 10714 10713 10712 10710 10708 10706 10705 10704 10703 10702 10702
10745 10747 10749 10747 10745 10746 10747 10747 10748 10748 10749 10749 10748 10747 10745 10745 10745 10746 10747 10747 10748 10747 10747 10747 10746 10746 10745 10744 10744 10743 10743 10742 10741 10740 10739 10738 10736 10734 10732 10731 10729 10728 10726 10724 10721 10718 10716 10714 10713 10712 10711 10710 10708 10707 10705 10704 10701 10700 10699 10698 10697 10696
10743 10744 10745 10743 10742 10743 10744 10743 10743 10744 10745 10744 10743 10742 10741 10741 10741 10742 10743 10743 10744 10743 10743 10743 10742 10742 10741 10741 10740 10739 10739 10738 10737 10736 10735 10734 10732 10731 10729 10727 10726 10724 10722 10720 10717 10715 10712 10710 10708 10707 10706 10705 10704 10702 10701 10699 10698 10695 10694 10694 10693 10691
10741 10741 10741 10739 10739 10740 10741 10740 10740 10740 10740 10739 10738 10737 10737 10738 10738 10739 10740 10740 10740 10740 10739 10739 10738 10738 10737 10737 10736 10736 10735 10734 10733 10732 10731 10730 10728 10727 10725 10723 10722 10720 10718 10716 10714 10711 10708 10705 10703 10702 10700 10699 10698 10697 10696 10694 10693 10692 10689 10688 10688 10687
10738 10738 10737 10737 10737 10738 10738 10738 10737 10737 10736 10734 10734 10734 10734 10735 10736 10737 10737 10737 10737 10736 10735 10735 10734 10734 10733 10733 10732 10732 10731 10730 10729 10729 10727 10726 10725 10723 10721 10719 10718 10716 10714 10712 10709 10707 10704 10701 10699 10697 10695 10694 10693 10692 10691 10689 10688 10687 10686 10684 10683 10683
10734 10735 10734 10735 10736 10736 10736 10735 10734 10733 10732 10731 10732 10732 10733 10733 10734 10734 10734 10733 10732 10731 10731 10730 10730 10730 10729 10728 10728 10727 10727 10726 10725 10725 10723 10722 10721 10719 10717 10715 10713 10711 10709 10707 10704 10702 10699 10696 10694 10692 10690 10689 10687 10686 10684 10684 10683 10682 10682 10680 10679 10677
10731 10732 10732 10733 10733 10733 10732 10732 10731 10729 10729 10729 10729 10730 10730 10731 10731 10730 10730 10729 10728 10727 10727 10726 10726 10725 10724 10724 10723 10723 10722 10722 10721 10720 10719 10718 10716 10715 10713 10711 10709 10707 10704 10702 10699 10697 10694 10692 10689 10687 10685 10683 10682 10680 10679 10678 10677 10676 10676 10676 10675 10673
10727 10728 10729 10729 10729 10729 10729 10729 10728 10727 10726 10727 10727 10728 10728 10728 10728 10726 10725 10724 10723 10723 10722 10722 10721 10720 10719 10719 10718 10718 10717 10717 10716 10715 10715 10713 10712 10710 10708 10706 10704 10701 10699 10696 10694 10692 10690 10687 10685 10683 10681 10679 10677 10675 10674 10672 10671 10671 10670 10670 10670 10669
10723 10724 10725 10725 10724 10724 10725 10725 10725 10725 10725 10725 10726 10726 10726 10725 10724 10722 10721 10719 10719 10719 10718 10717 10716 10715 10714 10714 10713 10713 10712 10712 10711 10711 10710 10709 10707 10706 10704 10701 10699 10696 10693 10691 10689 10687 10684 10682 10680 10678 10676 10674 10672 10670 10669 10668 10666 10665 10665 10664 10664 10663
10719 10720 10721 10721 10720 10721 10722 10722 10722 10722 10722 10723 10723 10723 10722 10720 10719 10717 10716 10715 10715 10714 10713 10712 10711 10710 10709 10709 10708 10708 10708 10707 10707 10706 10705 10704 10702 10700 10698 10696 10694 10692 10689 10687 10684 10682 10680 10677 10675 10672 10670 10668 10667 10665 10664 10663 10661 10660 10660 10659 10658 10658
10716 10717 10718 10717 10717 10718 10719 10719 10719 10719 10719 10719 10718 10717 10716 10714 10713 10712 10712 10711 10710 10710 10708 10707 10706 10705 10704 10704 10704 10703 10703 10703 10702 10701 10700 10698 10697 10695 10693 10691 10689 10687 10685 10682 10680 10677 10675 10672 10669 10667 10665 10662 10660 10659 10658 10656 10656 10655 10654 10653 10652 10652
10713 10714 10714 10714 10714 10715 10715 10715 10715 10715 10715 10714 10713 10711 10710 10709 10708 10707 10707 10706 10705 10704 10703 10702 10701 10700 10699 10699 10699 10699 10698 10698 10697 10696 10694 10693 10691 10689 10688 10686 10684 10682 10679 10677 10674 10672 10669 10667 10664 10661 10659 10656 10654 10653 10651 10649 10649 10648 10647 10646 10646 10645
10708 10709 10710 10710 10710 10710 10710 10710 10710 10710 10709 10708 10707 10706 10705 10704 10703 10702 10701 10701 10700 10699 10698 10696 10696 10695 10694 10694 10694 10694 10693 10692 10691 10690 10689 10687 10685 10684 10682 10680 10678 10676 10673 10671 10668 10665 10663 10660 10657 10655 10652 10650 10647 10645 10644 10642 10641 10640 10639 10639 10638 10637
10704 10705 10705 10706 10706 10706 10705 10705 10705 10705 10704 10703 10702 10701 10700 10699 10698 10697 10696 10695 10695 10694 10693 10692 10691 10690 10690 10690 10690 10689 10688 10687 10686 10684 10683 10681 10679 10678 10676 10674 10671 10669 10666 10664 10661 10659 10656 10653 10650 10648 10645 10643 10640 10638 10636 10635 10634 10633 10631 10630 10630 10629